This is the latest recevied weather packets stored in our database for station/object KC5TIL-3. If no packets are shown the sender has not sent any weather packets the latest 10 day(s).
| Time | Temp. | Humidity | Pressure | Rain* | Wind** | Luminosity | Snow |
|---|---|---|---|---|---|---|---|
| 1787953124 | 37.22° C | 10% | 1011.8 hPa | 0 mm | 2.68 m/s, 123° | - | - |
| 1787952826 | 38.33° C | 10% | 1011.8 hPa | 0 mm | 2.68 m/s, 288° | - | - |
| 1787952523 | 38.33° C | 10% | 1011.8 hPa | 0 mm | 1.34 m/s, 65° | - | - |
| 1787952221 | 37.78° C | 10% | 1011.8 hPa | 0 mm | 4.02 m/s, 118° | - | - |
| 1787951918 | 37.22° C | 10% | 1012.8 hPa | 0 mm | 4.02 m/s, 113° | - | - |
| 1787951620 | 37.78° C | 10% | 1012.8 hPa | 0 mm | 3.13 m/s, 131° | - | - |
| 1787951319 | 37.78° C | 10% | 1012.8 hPa | 0 mm | 3.58 m/s, 129° | - | - |
| 1787951021 | 37.22° C | 10% | 1012.8 hPa | 0 mm | 2.68 m/s, 110° | - | - |
| 1787950723 | 37.78° C | 10% | 1012.8 hPa | 0 mm | 4.02 m/s, 129° | - | - |
| 1787950421 | 37.22° C | 10% | 1012.8 hPa | 0 mm | 2.68 m/s, 155° | - | - |
| 1787950123 | 37.78° C | 10% | 1013.8 hPa | 0 mm | 2.68 m/s, 140° | - | - |
| 1787949825 | 38.33° C | 10% | 1013.8 hPa | 0 mm | 1.79 m/s, 16° | - | - |
| 1787949523 | 37.22° C | 10% | 1013.8 hPa | 0 mm | 0 m/s | - | - |
| 1787949225 | 37.78° C | 10% | 1013.8 hPa | 0 mm | 2.68 m/s, 116° | - | - |
| 1787948927 | 37.78° C | 10% | 1013.8 hPa | 0 mm | 0 m/s | - | - |
| 1787948626 | 37.78° C | 10% | 1013.8 hPa | 0 mm | 1.79 m/s, 135° | - | - |
| 1787948323 | 37.78° C | 10% | 1013.8 hPa | 0 mm | 1.34 m/s, 342° | - | - |
| 1787948025 | 38.33° C | 10% | 1013.8 hPa | 0 mm | 0 m/s | - | - |
| 1787947724 | 37.22° C | 10% | 1013.8 hPa | 0 mm | 3.13 m/s, 112° | - | - |
| 1787947421 | 37.22° C | 10% | 1013.8 hPa | 0 mm | 2.68 m/s, 194° | - | - |
| 1787947123 | 37.78° C | 10% | 1013.8 hPa | 0 mm | 1.79 m/s, 89° | - | - |
| 1787946821 | 37.78° C | 10% | 1013.8 hPa | 0 mm | 1.79 m/s, 319° | - | - |
| 1787946523 | 37.78° C | 10% | 1013.8 hPa | 0 mm | 1.79 m/s, 114° | - | - |
| 1787946225 | 37.78° C | 10% | 1013.8 hPa | 0 mm | 1.79 m/s, 271° | - | - |
| 1787945924 | 37.22° C | 10% | 1013.8 hPa | 0 mm | 3.13 m/s, 104° | - | - |
* Rain latest hour (hover to see other rain measurements)
** Current wind speed in m/s (hover to see current wind gust speed)